カタログに戻る

VENUS

運用中科学SSO
NORAD 42901·PAYLOAD·🇮🇱 Israel

打ち上げ Aug 2, 2017 から Guiana Space Centre

Loading…

次のパス (今後24時間)

TLE

最新Source: Space-Track

元期: Sep 14, 2026, 12:24 UTC

1 42901U 17044B   26257.51714719  .00003707  00000-0  19891-3 0  9997
2 42901  97.2648 290.2679 0004752  63.7451 296.4270 15.15526584494484

AllMySatでVENUSをリアルタイム追跡

Download on the App Store